CST,Max TemperatureF,Mean TemperatureF,Min TemperatureF,Max Dew PointF,MeanDew PointF,Min DewpointF,Max Humidity, Mean Humidity, Min Humidity, Max Sea Level PressureIn, Mean Sea Level PressureIn, Min Sea Level PressureIn, Max VisibilityMiles, Mean VisibilityMiles, Min VisibilityMiles, Max Wind SpeedMPH, Mean Wind SpeedMPH, Max Gust SpeedMPH,PrecipitationIn, CloudCover, Events, WindDirDegrees
2013-12-1,37,28,19,25,23,18,93,77,60,30.15,30.06,29.88,10,7,4,10,5,,0.00,5,,55
2013-12-2,44,36,28,36,31,25,93,85,70,29.87,29.64,29.52,7,5,2,18,10,24,0.00,4,,145
2013-12-3,37,32,28,36,33,28,100,98,93,29.69,29.61,29.54,2,1,0,16,8,21,0.01,8,Fog-Rain,25
2013-12-4,33,24,14,34,27,7,100,94,73,29.85,29.62,29.50,10,4,0,25,11,33,0.01,8,Fog-Rain-Snow,325
2013-12-5,14,8,1,5,0,-8,79,69,57,30.34,30.14,29.88,10,10,7,23,18,30,0.00,5,Snow,295
2013-12-6,8,2,-4,-4,-8,-11,72,66,57,30.63,30.51,30.40,10,10,10,14,9,18,0.00,1,,317
2013-12-7,10,2,-7,3,-8,-15,79,63,44,30.69,30.60,30.48,10,9,2,9,4,,0.00,2,Snow,345
2013-12-8,15,10,5,12,7,1,93,82,67,30.46,30.15,30.01,10,4,1,15,9,20,0.00,8,Rain-Snow,125
2013-12-9,10,0,-7,1,-8,-15,85,71,61,30.17,30.08,29.89,10,10,7,23,13,28,0.00,2,,251
2013-12-10,17,11,5,14,6,-2,93,75,62,30.22,30.05,29.83,10,7,1,24,16,37,0.03,5,Rain-Snow,259
2013-12-11,17,5,-7,14,-9,-15,86,69,60,30.56,30.44,30.22,10,9,1,25,12,33,0.00,2,Rain-Snow,283
2013-12-12,23,12,1,18,9,-6,86,78,72,30.30,30.20,30.06,10,10,10,21,12,24,0.00,3,,205
2013-12-13,23,16,8,18,12,5,93,83,73,30.13,30.04,29.99,10,9,6,18,9,23,0.00,2,Snow,59
2013-12-14,15,10,6,10,8,0,86,80,72,30.17,30.12,30.09,10,9,2,16,12,18,0.00,8,Rain-Snow,342
2013-12-15,10,8,5,5,0,-4,79,73,66,30.11,30.06,30.02,10,8,1,14,8,18,0.00,7,Snow,19
2013-12-16,24,17,10,21,11,3,93,84,73,30.03,29.99,29.92,10,8,3,16,10,,0.00,6,,212
2013-12-17,32,24,15,27,18,10,93,77,60,30.14,30.08,29.99,10,10,6,25,15,38,0.00,1,,281
2013-12-18,37,24,12,32,23,9,93,79,63,30.07,29.78,29.67,10,10,10,21,12,26,0.00,0,Snow,201
2013-12-19,32,24,17,27,18,14,93,85,80,29.91,29.86,29.77,10,9,2,23,15,30,0.00,4,Rain,22
2013-12-20,19,14,10,16,14,7,93,86,79,29.92,29.87,29.82,10,9,3,20,12,23,0.00,8,Rain,355
2013-12-21,21,14,6,18,12,3,93,87,85,29.88,29.84,29.80,10,8,4,17,7,25,0.00,7,Snow,7
2013-12-22,19,10,0,16,5,-8,93,78,72,30.27,30.04,29.84,10,9,4,22,16,31,0.00,7,Rain-Snow,334
2013-12-23,3,-4,-11,-8,-14,-20,72,61,43,30.48,30.41,30.28,10,10,9,22,14,28,0.00,1,,310
2013-12-24,14,0,-14,10,-8,-22,86,68,50,30.46,30.25,30.11,10,9,2,24,11,32,0.00,4,Snow,171
2013-12-25,32,23,14,27,18,9,93,86,74,30.19,30.12,30.07,10,7,0,23,10,25,0.00,7,Rain-Snow,259
2013-12-26,33,25,17,28,21,14,93,84,75,30.17,30.09,30.03,10,10,9,10,7,,0.00,6,,223
2013-12-27,42,28,14,34,24,12,93,83,65,30.17,30.07,29.98,10,10,9,23,10,29,0.00,0,,232
2013-12-28,48,30,10,39,27,7,93,82,62,30.00,29.84,29.67,10,9,2,30,12,40,0.00,2,Snow,210
2013-12-29,10,2,-5,5,-12,-17,79,61,39,30.28,30.21,30.01,10,9,3,31,21,41,0.00,3,Rain,334
2013-12-30,8,2,-5,3,-5,-15,85,74,60,30.24,30.15,30.05,10,6,0,16,6,18,0.00,7,Rain-Snow,166
2013-12-31,3,0,-2,-2,-4,-8,85,77,72,30.26,30.22,30.18,10,7,0,15,8,16,0.00,7,Rain-Snow,25